When you browse on this site, cookies collect data to enhance your experience and personalize the content and advertising you see.
Visit our Privacy Policy to learn more. By continuing to use the site, you agree to this use of cookies and data.
  • Em Portugal
  • Lista de países
  • Para 7 dias
  • Temperatura da água
  • Mapas de satélite
  • Mapa do tempo
  • Widgets de tempo
  • user-avatar
    Iniciar Sessão

    Previsão horária em Krasnoarmeysk

    Hoje, 22 Maio, Quarta-feira

    Tempo Temperatura Precipitação Vento Pressão Humidade
    00:00 +16°C° 0.1 mm 5 m/s 744 mmHg 72%
    01:00 +16°C° 0.1 mm 5 m/s 743 mmHg 73%
    02:00 +16°C° 0.1 mm 5 m/s 743 mmHg 74%
    03:00 +16°C° 0.2 mm 5 m/s 743 mmHg 78%
    04:00 +15°C° 0.2 mm 4 m/s 743 mmHg 81%
    05:00 +15°C° 0.2 mm 4 m/s 743 mmHg 85%
    06:00 +16°C° 1 mm 5 m/s 743 mmHg 84%
    07:00 +17°C° 1 mm 6 m/s 742 mmHg 82%
    08:00 +19°C° 1 mm 6 m/s 742 mmHg 81%
    09:00 +19°C° 0.4 mm 6 m/s 742 mmHg 79%
    10:00 +19°C° 0.4 mm 5 m/s 742 mmHg 78%
    11:00 +19°C° 0.4 mm 5 m/s 742 mmHg 76%
    12:00 +19°C° 1.2 mm 5 m/s 741 mmHg 78%
    13:00 +19°C° 1.2 mm 4 m/s 741 mmHg 80%
    14:00 +19°C° 1.2 mm 4 m/s 741 mmHg 82%
    15:00 +18°C° 1.6 mm 4 m/s 740 mmHg 85%
    16:00 +17°C° 1.6 mm 3 m/s 740 mmHg 87%
    17:00 +17°C° 1.6 mm 2 m/s 740 mmHg 89%
    18:00 +16°C° 0 mm 2 m/s 740 mmHg 90%
    19:00 +16°C° 0 mm 3 m/s 740 mmHg 91%
    20:00 +16°C° 0 mm 3 m/s 739 mmHg 92%
    21:00 +14°C° 0.4 mm 3 m/s 739 mmHg 93%
    22:00 +14°C° 0.4 mm 3 m/s 739 mmHg 95%
    23:00 +13°C° 0.4 mm 3 m/s 739 mmHg 96%

    Amanhã, 23 Maio, Quinta-feira

    Tempo Temperatura Precipitação Vento Pressão Humidade
    00:00 +13°C° 0 mm 3 m/s 739 mmHg 96%
    01:00 +13°C° 0 mm 3 m/s 739 mmHg 96%
    02:00 +12°C° 0 mm 3 m/s 739 mmHg 95%
    03:00 +12°C° 0.1 mm 3 m/s 739 mmHg 95%
    04:00 +13°C° 0.1 mm 3 m/s 739 mmHg 94%
    05:00 +13°C° 0.1 mm 3 m/s 739 mmHg 93%
    06:00 +14°C° 1.3 mm 3 m/s 739 mmHg 90%
    07:00 +14°C° 1.3 mm 4 m/s 739 mmHg 88%
    08:00 +15°C° 1.3 mm 4 m/s 739 mmHg 85%
    09:00 +16°C° 0.7 mm 5 m/s 739 mmHg 81%
    10:00 +17°C° 0.7 mm 5 m/s 739 mmHg 76%
    11:00 +19°C° 0.7 mm 5 m/s 739 mmHg 72%
    12:00 +19°C° 0.3 mm 5 m/s 739 mmHg 73%
    13:00 +19°C° 0.3 mm 6 m/s 739 mmHg 74%
    14:00 +19°C° 0.3 mm 6 m/s 738 mmHg 75%
    15:00 +19°C° 0.9 mm 5 m/s 738 mmHg 75%
    16:00 +20°C° 0.9 mm 5 m/s 738 mmHg 75%
    17:00 +20°C° 0.9 mm 5 m/s 738 mmHg 75%
    18:00 +19°C° 0.7 mm 4 m/s 738 mmHg 79%
    19:00 +18°C° 0.7 mm 4 m/s 738 mmHg 84%
    20:00 +16°C° 0.7 mm 3 m/s 738 mmHg 89%
    21:00 +16°C° 0 mm 3 m/s 738 mmHg 90%
    22:00 +16°C° 0 mm 3 m/s 739 mmHg 91%
    23:00 +14°C° 0 mm 3 m/s 739 mmHg 92%

    Depois de amanhã, 24 Maio, Sexta-feira

    Tempo Temperatura Precipitação Vento Pressão Humidade
    00:00 +14°C° 0 mm 3 m/s 739 mmHg 92%
    01:00 +14°C° 0 mm 3 m/s 739 mmHg 92%
    02:00 +13°C° 0 mm 3 m/s 739 mmHg 93%
    03:00 +15°C° 0 mm 2 m/s 739 mmHg 92%
    04:00 +15°C° 0 mm 2 m/s 739 mmHg 91%
    05:00 +15°C° 0 mm 2 m/s 739 mmHg 91%
    06:00 +17°C° 0 mm 2 m/s 740 mmHg 84%
    07:00 +19°C° 0 mm 2 m/s 740 mmHg 77%
    08:00 +21°C° 0 mm 2 m/s 740 mmHg 71%
    09:00 +23°C° 0.2 mm 2 m/s 740 mmHg 65%
    10:00 +24°C° 0.2 mm 2 m/s 740 mmHg 60%
    11:00 +25°C° 0.2 mm 2 m/s 740 mmHg 54%
    12:00 +26°C° 0 mm 3 m/s 740 mmHg 53%
    13:00 +26°C° 0 mm 3 m/s 740 mmHg 51%
    14:00 +27°C° 0 mm 3 m/s 740 mmHg 49%
    15:00 +26°C° 0 mm 3 m/s 740 mmHg 54%
    16:00 +25°C° 0 mm 2 m/s 740 mmHg 59%
    17:00 +24°C° 0 mm 2 m/s 740 mmHg 64%
    18:00 +21°C° 0 mm 2 m/s 740 mmHg 69%
    19:00 +20°C° 0 mm 2 m/s 739 mmHg 74%
    20:00 +19°C° 0 mm 2 m/s 739 mmHg 79%
    21:00 +18°C° 0.2 mm 2 m/s 739 mmHg 81%
    22:00 +17°C° 0.2 mm 3 m/s 740 mmHg 84%
    23:00 +17°C° 0.2 mm 3 m/s 740 mmHg 86%

    25 Maio, Sábado

    Tempo Temperatura Precipitação Vento Pressão Humidade
    00:00 +17°C° 0.2 mm 2 m/s 739 mmHg 86%
    01:00 +17°C° 0.2 mm 2 m/s 739 mmHg 86%
    02:00 +16°C° 0.2 mm 2 m/s 739 mmHg 86%
    03:00 +16°C° 0 mm 2 m/s 739 mmHg 86%
    04:00 +18°C° 0 mm 1 m/s 739 mmHg 85%
    05:00 +18°C° 0 mm 1 m/s 739 mmHg 85%
    06:00 +18°C° 0.1 mm 1 m/s 739 mmHg 82%
    07:00 +17°C° 0.1 mm 0 m/s 739 mmHg 79%
    08:00 +18°C° 0.1 mm 0 m/s 739 mmHg 76%
    09:00 +21°C° 0.7 mm 1 m/s 738 mmHg 72%
    10:00 +22°C° 0.7 mm 1 m/s 738 mmHg 67%
    11:00 +24°C° 0.7 mm 1 m/s 738 mmHg 63%
    12:00 +24°C° 1.6 mm 2 m/s 738 mmHg 64%
    13:00 +24°C° 1.6 mm 2 m/s 737 mmHg 65%
    14:00 +24°C° 1.6 mm 2 m/s 737 mmHg 66%
    15:00 +23°C° 1.2 mm 2 m/s 736 mmHg 70%
    16:00 +23°C° 1.2 mm 1 m/s 736 mmHg 73%
    17:00 +22°C° 1.2 mm 1 m/s 736 mmHg 76%
    18:00 +21°C° 0.3 mm 1 m/s 736 mmHg 80%
    19:00 +20°C° 0.3 mm 1 m/s 736 mmHg 84%
    20:00 +18°C° 0.3 mm 2 m/s 736 mmHg 88%
    21:00 +17°C° 0.1 mm 2 m/s 736 mmHg 88%
    22:00 +17°C° 0.1 mm 2 m/s 736 mmHg 88%
    23:00 +17°C° 0.1 mm 2 m/s 735 mmHg 89%

    26 Maio, Domingo

    Tempo Temperatura Precipitação Vento Pressão Humidade
    00:00 +16°C° 0.6 mm 3 m/s 735 mmHg 90%
    01:00 +16°C° 0.6 mm 3 m/s 735 mmHg 91%
    02:00 +15°C° 0.6 mm 4 m/s 735 mmHg 92%
    03:00 +16°C° 1 mm 3 m/s 736 mmHg 92%
    04:00 +16°C° 1 mm 3 m/s 736 mmHg 93%
    05:00 +16°C° 1 mm 3 m/s 736 mmHg 93%
    06:00 +17°C° 0.4 mm 4 m/s 736 mmHg 89%
    07:00 +18°C° 0.4 mm 4 m/s 737 mmHg 84%
    08:00 +20°C° 0.4 mm 4 m/s 737 mmHg 79%
    09:00 +20°C° 1.3 mm 5 m/s 737 mmHg 76%
    10:00 +21°C° 1.3 mm 5 m/s 737 mmHg 74%
    11:00 +21°C° 1.3 mm 5 m/s 737 mmHg 72%
    12:00 +22°C° 0.6 mm 5 m/s 737 mmHg 69%
    13:00 +22°C° 0.6 mm 5 m/s 737 mmHg 66%
    14:00 +23°C° 0.6 mm 6 m/s 738 mmHg 63%
    15:00 +23°C° 0.1 mm 5 m/s 738 mmHg 64%
    16:00 +22°C° 0.1 mm 5 m/s 738 mmHg 66%
    17:00 +22°C° 0.1 mm 4 m/s 738 mmHg 68%
    18:00 +20°C° 0.1 mm 4 m/s 739 mmHg 72%
    19:00 +19°C° 0.1 mm 3 m/s 739 mmHg 76%
    20:00 +17°C° 0.1 mm 3 m/s 740 mmHg 80%
    21:00 +16°C° 0 mm 3 m/s 740 mmHg 81%
    22:00 +14°C° 0 mm 3 m/s 740 mmHg 83%
    23:00 +15°C° 0 mm 2 m/s 740 mmHg 85%

    27 Maio, Segunda-feira

    Tempo Temperatura Precipitação Vento Pressão Humidade
    00:00 +14°C° 0 mm 2 m/s 740 mmHg 86%
    01:00 +14°C° 0 mm 2 m/s 740 mmHg 88%
    02:00 +13°C° 0 mm 2 m/s 740 mmHg 89%
    03:00 +14°C° 0 mm 2 m/s 741 mmHg 88%
    04:00 +14°C° 0 mm 2 m/s 741 mmHg 87%
    05:00 +13°C° 0 mm 3 m/s 741 mmHg 87%
    06:00 +15°C° 0 mm 4 m/s 741 mmHg 80%
    07:00 +17°C° 0 mm 5 m/s 741 mmHg 74%
    08:00 +20°C° 0 mm 7 m/s 741 mmHg 67%
    09:00 +21°C° 0.5 mm 7 m/s 741 mmHg 67%
    10:00 +21°C° 0.5 mm 8 m/s 741 mmHg 67%
    11:00 +22°C° 0.5 mm 8 m/s 741 mmHg 66%
    12:00 +22°C° 1 mm 8 m/s 741 mmHg 67%
    13:00 +22°C° 1 mm 7 m/s 741 mmHg 67%
    14:00 +22°C° 1 mm 7 m/s 741 mmHg 68%
    15:00 +22°C° 0.8 mm 6 m/s 741 mmHg 69%
    16:00 +22°C° 0.8 mm 5 m/s 742 mmHg 70%
    17:00 +21°C° 0.8 mm 4 m/s 742 mmHg 71%
    18:00 +19°C° 0 mm 3 m/s 742 mmHg 74%
    19:00 +18°C° 0 mm 3 m/s 742 mmHg 77%
    20:00 +16°C° 0 mm 3 m/s 743 mmHg 80%
    21:00 +15°C° 0 mm 2 m/s 743 mmHg 80%
    22:00 +15°C° 0 mm 1 m/s 743 mmHg 79%
    23:00 +14°C° 0 mm 1 m/s 743 mmHg 79%
    Mostrar mais